Weather History for New Bedford, MA

Change the Weather History Date:

Saturday, January 19, 2013

  Actual Average Record
Temperature  
Mean Temperature 32 °F -  
Max Temperature 46 °F 34 °F 58 °F (1973)
Min Temperature 19 °F 20 °F -1 °F (1983)
Degree Days  
Heating Degree Days 32    
Moisture  
Dew Point 29 °F    
Average Humidity 64    
Maximum Humidity 72    
Minimum Humidity 52    
Precipitation  
Precipitation 0.00 in - - ()
Sea Level Pressure  
Sea Level Pressure 30.17 in    
Wind  
Wind Speed 11 mph (SW)    
Max Wind Speed 26 mph    
Max Gust Speed 44 mph    
Visibility 10 miles    
Events      
Averages and records for this station are not official NWS values.
T = Trace of Precipitation, MM = Missing Value Source: NWS Daily Summary

Daily Weather History Graph

Daily Weather History Graph

Search for Another Location

Airport:

Trip Planner

Search our weather history database for the weather conditions in past years. The results will help you decide how hot, cold, wet, or windy it might be!

Date:

Astronomy

Jan. 19, 2013 Rise Set
Actual Time 7:06 AM EST 4:43 PM EST
Civil Twilight 6:35 AM EST 5:13 PM EST
Nautical Twilight 6:01 AM EST 5:47 PM EST
Astronomical Twilight 5:28 AM EST 6:21 PM EST
Moon 11:08 AM EST (1/19) 12:36 AM EST (1/19)
Length of Visible Light 10h 37m
Length of Day
9h 37m
First Quarter, 57% of the Moon is Illuminated
Jan 19
First Quarter
Jan 26
Full
Feb 3
Last Quarter
Feb 10
New
Feb 17
First Quarter

Hourly Weather History & Observations

Time (EST) Temp. Windchill Dew Point Humidity Pressure Visibility Wind Dir Wind Speed Gust Speed Precip Events Conditions
12:53 AM 19.0 °F - 10.9 °F 71% 30.40 in 10.0 mi Calm Calm - N/A   Clear
1:53 AM 21.9 °F - 14.0 °F 72% 30.39 in 10.0 mi Calm Calm - N/A   Overcast
2:53 AM 24.1 °F 17.0 °F 16.0 °F 71% 30.38 in 10.0 mi WSW 5.8 mph - N/A   Overcast
3:53 AM 28.0 °F 22.8 °F 19.0 °F 69% 30.33 in 10.0 mi SSW 4.6 mph - N/A   Scattered Clouds
4:53 AM 35.1 °F 24.5 °F 24.1 °F 64% 30.30 in 10.0 mi SW 18.4 mph 26.5 mph N/A   Mostly Cloudy
5:53 AM 37.0 °F 27.7 °F 26.1 °F 65% 30.28 in 10.0 mi SW 16.1 mph 29.9 mph N/A   Mostly Cloudy
6:53 AM 37.9 °F 28.5 °F 27.0 °F 65% 30.26 in 10.0 mi SW 17.3 mph 26.5 mph N/A   Partly Cloudy
7:53 AM 39.0 °F 30.3 °F 28.0 °F 65% 30.25 in 10.0 mi SSW 16.1 mph 26.5 mph N/A   Clear
8:53 AM 42.1 °F 33.1 °F 30.0 °F 62% 30.25 in 10.0 mi SW 20.7 mph 31.1 mph N/A   Scattered Clouds
9:53 AM 43.0 °F 34.2 °F 30.9 °F 62% 30.25 in 10.0 mi SW 20.7 mph 36.8 mph N/A   Mostly Cloudy
10:00 AM 44.6 °F 36.9 °F 30.2 °F 57% 30.24 in 10.0 mi SW 18.4 mph 29.9 mph N/A   Mostly Cloudy
10:53 AM 45.0 °F 36.2 °F 30.9 °F 58% 30.21 in 10.0 mi SW 24.2 mph 40.3 mph N/A   Partly Cloudy
11:53 AM 46.9 °F - 30.9 °F 54% 30.15 in 10.0 mi SW 21.9 mph 40.3 mph N/A   Clear
12:53 PM 46.9 °F - 30.9 °F 54% 30.11 in 10.0 mi SW 24.2 mph 40.3 mph N/A   Clear
1:53 PM 46.9 °F - 30.0 °F 52% 30.09 in 10.0 mi SW 26.5 mph 43.7 mph N/A   Partly Cloudy
2:53 PM 46.0 °F 38.8 °F 30.0 °F 54% 30.07 in 10.0 mi SW 18.4 mph 38.0 mph N/A   Clear
3:53 PM 45.0 °F 36.9 °F 30.9 °F 58% 30.07 in 10.0 mi SW 20.7 mph 33.4 mph N/A   Clear
4:53 PM 44.1 °F 37.4 °F 32.0 °F 63% 30.05 in 10.0 mi SW 13.8 mph 23.0 mph N/A   Clear
5:53 PM 43.0 °F 36.4 °F 33.1 °F 68% 30.05 in 10.0 mi SW 12.7 mph - N/A   Clear
6:53 PM 43.0 °F 36.8 °F 33.1 °F 68% 30.05 in 10.0 mi SW 11.5 mph 19.6 mph N/A   Clear
7:53 PM 43.0 °F 36.0 °F 34.0 °F 71% 30.04 in 10.0 mi SW 13.8 mph 19.6 mph N/A   Clear
8:53 PM 44.1 °F 39.0 °F 35.1 °F 71% 30.02 in 10.0 mi SW 9.2 mph 17.3 mph N/A   Clear
9:53 PM 45.0 °F 38.9 °F 35.1 °F 68% 30.00 in 10.0 mi SW 12.7 mph - N/A   Clear
10:53 PM 45.0 °F 40.1 °F 36.0 °F 71% 29.97 in 10.0 mi SW 9.2 mph 19.6 mph N/A   Clear
11:53 PM 46.0 °F 39.9 °F 36.0 °F 68% 29.94 in 10.0 mi SW 13.8 mph 23.0 mph N/A   Partly Cloudy